Time,TemperatureF,DewpointF,PressureIn,WindDirection,WindDirectionDegrees,WindSpeedMPH,WindSpeedGustMPH,Humidity,HourlyPrecipIn,Conditions,Clouds,dailyrainin,SoftwareType,DateUTC
2013-03-31 00:02:00,34.0,-99.9,-100.00,North,0,0.0,0.0,-999,0.00,,,-99.99,,2013-03-31 06:02:00,
2013-03-31 00:12:00,34.0,-99.9,-100.00,North,0,0.0,0.0,-999,0.00,,,-99.99,,2013-03-31 06:12:00,
2013-03-31 00:23:00,33.0,-99.9,-100.00,North,0,0.0,0.0,-999,0.00,,,-99.99,,2013-03-31 06:23:00,
2013-03-31 00:33:00,32.0,-99.9,-100.00,North,0,0.0,0.0,-999,0.00,,,-99.99,,2013-03-31 06:33:00,
2013-03-31 00:42:00,32.0,-99.9,-100.00,North,0,0.0,0.0,-999,0.00,,,-99.99,,2013-03-31 06:42:00,
2013-03-31 00:53:00,33.0,-99.9,-100.00,North,0,0.0,0.0,-999,0.00,,,-99.99,,2013-03-31 06:53:00,
2013-03-31 01:02:00,33.0,-99.9,-100.00,North,0,0.0,0.0,-999,0.00,,,-99.99,,2013-03-31 07:02:00,
2013-03-31 01:12:00,33.0,-99.9,-100.00,North,0,0.0,0.0,-999,0.00,,,-99.99,,2013-03-31 07:12:00,
2013-03-31 01:22:00,34.0,-99.9,-100.00,North,0,0.0,0.0,-999,0.00,,,-99.99,,2013-03-31 07:22:00,
2013-03-31 01:33:00,34.0,-99.9,-100.00,North,0,0.0,0.0,-999,0.00,,,-99.99,,2013-03-31 07:33:00,
2013-03-31 01:43:00,34.0,-99.9,-100.00,North,0,0.0,0.0,-999,0.00,,,-99.99,,2013-03-31 07:43:00,
2013-03-31 01:53:00,33.0,-99.9,-100.00,North,0,0.0,0.0,-999,0.00,,,-99.99,,2013-03-31 07:53:00,
2013-03-31 02:02:00,33.0,-99.9,-100.00,North,0,0.0,0.0,-999,0.00,,,-99.99,,2013-03-31 08:02:00,
2013-03-31 02:13:00,33.0,-99.9,-100.00,North,0,0.0,0.0,-999,0.00,,,-99.99,,2013-03-31 08:13:00,
2013-03-31 02:22:00,31.0,-99.9,-100.00,North,0,0.0,0.0,-999,0.00,,,-99.99,,2013-03-31 08:22:00,
2013-03-31 02:33:00,31.0,-99.9,-100.00,North,0,0.0,0.0,-999,0.00,,,-99.99,,2013-03-31 08:33:00,
2013-03-31 02:43:00,31.0,-99.9,-100.00,North,0,0.0,0.0,-999,0.00,,,-99.99,,2013-03-31 08:43:00,
2013-03-31 02:52:00,31.0,-99.9,-100.00,North,0,0.0,0.0,-999,0.00,,,-99.99,,2013-03-31 08:52:00,
2013-03-31 03:02:00,31.0,-99.9,-100.00,North,0,0.0,0.0,-999,0.00,,,-99.99,,2013-03-31 09:02:00,
2013-03-31 03:12:00,31.0,-99.9,-100.00,North,0,0.0,0.0,-999,0.00,,,-99.99,,2013-03-31 09:12:00,
2013-03-31 03:22:00,31.0,-99.9,-100.00,North,0,0.0,0.0,-999,0.00,,,-99.99,,2013-03-31 09:22:00,
2013-03-31 03:33:00,31.0,-99.9,-100.00,North,0,0.0,0.0,-999,0.00,,,-99.99,,2013-03-31 09:33:00,
2013-03-31 03:43:00,31.0,-99.9,-100.00,North,0,0.0,0.0,-999,0.00,,,-99.99,,2013-03-31 09:43:00,
2013-03-31 03:54:00,31.0,-99.9,-100.00,North,0,0.0,0.0,-999,0.00,,,-99.99,,2013-03-31 09:54:00,
2013-03-31 04:03:00,30.0,-99.9,-100.00,North,0,0.0,0.0,-999,0.00,,,-99.99,,2013-03-31 10:03:00,
2013-03-31 04:13:00,30.0,-99.9,-100.00,North,0,0.0,0.0,-999,0.00,,,-99.99,,2013-03-31 10:13:00,
2013-03-31 04:24:00,30.0,-99.9,-100.00,North,0,0.0,0.0,-999,0.00,,,-99.99,,2013-03-31 10:24:00,
2013-03-31 04:33:00,29.0,-99.9,-100.00,North,0,0.0,0.0,-999,0.00,,,-99.99,,2013-03-31 10:33:00,
2013-03-31 04:42:00,29.0,-99.9,-100.00,North,0,0.0,0.0,-999,0.00,,,-99.99,,2013-03-31 10:42:00,
2013-03-31 04:53:00,29.0,-99.9,-100.00,North,0,0.0,0.0,-999,0.00,,,-99.99,,2013-03-31 10:53:00,
2013-03-31 05:03:00,29.0,-99.9,-100.00,North,0,0.0,0.0,-999,0.00,,,-99.99,,2013-03-31 11:03:00,
2013-03-31 05:12:00,29.0,-99.9,-100.00,North,0,0.0,0.0,-999,0.00,,,-99.99,,2013-03-31 11:12:00,
2013-03-31 05:23:00,29.0,-99.9,-100.00,North,0,0.0,0.0,-999,0.00,,,-99.99,,2013-03-31 11:23:00,
2013-03-31 05:33:00,29.0,-99.9,-100.00,North,0,0.0,0.0,-999,0.00,,,-99.99,,2013-03-31 11:33:00,
2013-03-31 05:43:00,29.0,-99.9,-100.00,North,0,0.0,0.0,-999,0.00,,,-99.99,,2013-03-31 11:43:00,
2013-03-31 05:53:00,28.0,-99.9,-100.00,ENE,70,1.0,4.0,-999,0.00,,,-99.99,,2013-03-31 11:53:00,
2013-03-31 06:03:00,28.0,-99.9,-100.00,East,94,4.0,5.0,-999,0.00,,,-99.99,,2013-03-31 12:03:00,
2013-03-31 06:12:00,28.0,-99.9,-100.00,East,94,4.0,5.0,-999,0.00,,,-99.99,,2013-03-31 12:12:00,
2013-03-31 06:23:00,28.0,-99.9,-100.00,East,96,4.0,6.0,-999,0.00,,,-99.99,,2013-03-31 12:23:00,
2013-03-31 06:33:00,28.0,-99.9,-100.00,East,101,5.0,6.0,-999,0.00,,,-99.99,,2013-03-31 12:33:00,
2013-03-31 06:42:00,28.0,-99.9,-100.00,East,101,5.0,6.0,-999,0.00,,,-99.99,,2013-03-31 12:42:00,
2013-03-31 06:53:00,28.0,-99.9,-100.00,East,84,6.0,7.0,-999,0.00,,,-99.99,,2013-03-31 12:53:00,
2013-03-31 07:02:00,27.0,-99.9,-100.00,East,89,6.0,8.0,-999,0.00,,,-99.99,,2013-03-31 13:02:00,
2013-03-31 07:12:00,27.0,-99.9,-100.00,East,89,6.0,8.0,-999,0.00,,,-99.99,,2013-03-31 13:12:00,
2013-03-31 07:23:00,27.0,-99.9,-100.00,ESE,114,6.0,7.0,-999,0.00,,,-99.99,,2013-03-31 13:23:00,
2013-03-31 07:33:00,27.0,-99.9,-100.00,East,80,7.0,9.0,-999,0.00,,,-99.99,,2013-03-31 13:33:00,
2013-03-31 07:43:00,27.0,-99.9,-100.00,East,80,7.0,9.0,-999,0.00,,,-99.99,,2013-03-31 13:43:00,
2013-03-31 07:53:00,27.0,-99.9,-100.00,East,86,7.0,9.0,-999,0.00,,,-99.99,,2013-03-31 13:53:00,
2013-03-31 08:03:00,27.0,-99.9,-100.00,ENE,77,6.0,9.0,-999,0.00,,,-99.99,,2013-03-31 14:03:00,
2013-03-31 08:13:00,27.0,-99.9,-100.00,ENE,77,6.0,9.0,-999,0.00,,,-99.99,,2013-03-31 14:13:00,
2013-03-31 08:23:00,27.0,-99.9,-100.00,East,89,7.0,9.0,-999,0.00,,,-99.99,,2013-03-31 14:23:00,
2013-03-31 08:33:00,28.0,-99.9,-100.00,ENE,77,7.0,9.0,-999,0.00,,,-99.99,,2013-03-31 14:33:00,
2013-03-31 08:43:00,28.0,-99.9,-100.00,ENE,77,7.0,9.0,-999,0.00,,,-99.99,,2013-03-31 14:43:00,
2013-03-31 08:53:00,29.0,-99.9,-100.00,ESE,105,7.0,8.0,-999,0.00,,,-99.99,,2013-03-31 14:53:00,
2013-03-31 09:03:00,29.0,-99.9,-100.00,ESE,108,6.0,8.0,-999,0.00,,,-99.99,,2013-03-31 15:03:00,
2013-03-31 09:13:00,29.0,-99.9,-100.00,ESE,108,6.0,8.0,-999,0.00,,,-99.99,,2013-03-31 15:13:00,
2013-03-31 09:23:00,29.0,-99.9,-100.00,ENE,66,7.0,9.0,-999,0.00,,,-99.99,,2013-03-31 15:23:00,
2013-03-31 09:34:00,30.0,-99.9,-100.00,ENE,76,7.0,8.0,-999,0.00,,,-99.99,,2013-03-31 15:34:00,
2013-03-31 09:44:00,30.0,-99.9,-100.00,ENE,76,7.0,8.0,-999,0.00,,,-99.99,,2013-03-31 15:44:00,
2013-03-31 09:54:00,30.0,-99.9,-100.00,ENE,76,6.0,9.0,-999,0.00,,,-99.99,,2013-03-31 15:54:00,
2013-03-31 10:03:00,32.0,-99.9,-100.00,ESE,104,7.0,8.0,-999,0.00,,,-99.99,,2013-03-31 16:03:00,
2013-03-31 10:14:00,32.0,-99.9,-100.00,ESE,104,7.0,8.0,-999,0.00,,,-99.99,,2013-03-31 16:14:00,
2013-03-31 10:23:00,32.0,-99.9,-100.00,East,79,7.0,9.0,-999,0.00,,,-99.99,,2013-03-31 16:23:00,
2013-03-31 10:34:00,31.0,-99.9,-100.00,East,84,6.0,8.0,-999,0.00,,,-99.99,,2013-03-31 16:34:00,
2013-03-31 10:43:00,31.0,-99.9,-100.00,East,84,6.0,8.0,-999,0.00,,,-99.99,,2013-03-31 16:43:00,
2013-03-31 10:54:00,32.0,-99.9,-100.00,ENE,69,6.0,8.0,-999,0.00,,,-99.99,,2013-03-31 16:54:00,
2013-03-31 11:03:00,32.0,-99.9,-100.00,ENE,69,6.0,8.0,-999,0.00,,,-99.99,,2013-03-31 17:03:00,
2013-03-31 11:13:00,32.0,-99.9,-100.00,ENE,69,6.0,8.0,-999,0.00,,,-99.99,,2013-03-31 17:13:00,
2013-03-31 11:23:00,31.0,-99.9,-100.00,ESE,122,6.0,8.0,-999,0.00,,,-99.99,,2013-03-31 17:23:00,
2013-03-31 11:33:00,31.0,-99.9,-100.00,ENE,58,6.0,8.0,-999,0.00,,,-99.99,,2013-03-31 17:33:00,
2013-03-31 11:43:00,31.0,-99.9,-100.00,ENE,58,6.0,8.0,-999,0.00,,,-99.99,,2013-03-31 17:43:00,
2013-03-31 11:53:00,30.0,-99.9,-100.00,East,86,6.0,8.0,-999,0.00,,,-99.99,,2013-03-31 17:53:00,
2013-03-31 12:03:00,31.0,-99.9,-100.00,ENE,72,6.0,8.0,-999,0.00,,,-99.99,,2013-03-31 18:03:00,
2013-03-31 12:13:00,31.0,-99.9,-100.00,ENE,72,6.0,8.0,-999,0.00,,,-99.99,,2013-03-31 18:13:00,
2013-03-31 12:23:00,31.0,-99.9,-100.00,East,82,6.0,7.0,-999,0.00,,,-99.99,,2013-03-31 18:23:00,
2013-03-31 12:33:00,32.0,-99.9,-100.00,ESE,104,5.0,7.0,-999,0.00,,,-99.99,,2013-03-31 18:33:00,
2013-03-31 12:43:00,32.0,-99.9,-100.00,ESE,104,5.0,7.0,-999,0.00,,,-99.99,,2013-03-31 18:43:00,
2013-03-31 12:53:00,31.0,-99.9,-100.00,ENE,72,6.0,8.0,-999,0.00,,,-99.99,,2013-03-31 18:53:00,
2013-03-31 13:03:00,32.0,-99.9,-100.00,East,94,4.0,6.0,-999,0.00,,,-99.99,,2013-03-31 19:03:00,
2013-03-31 13:13:00,32.0,-99.9,-100.00,East,94,4.0,6.0,-999,0.00,,,-99.99,,2013-03-31 19:13:00,
2013-03-31 13:23:00,33.0,-99.9,-100.00,North,0,0.0,0.0,-999,0.00,,,-99.99,,2013-03-31 19:23:00,
2013-03-31 13:33:00,35.0,-99.9,-100.00,East,87,1.0,4.0,-999,0.00,,,-99.99,,2013-03-31 19:33:00,
2013-03-31 13:43:00,35.0,-99.9,-100.00,East,87,1.0,4.0,-999,0.00,,,-99.99,,2013-03-31 19:43:00,
2013-03-31 13:54:00,37.0,-99.9,-100.00,North,0,0.0,0.0,-999,0.00,,,-99.99,,2013-03-31 19:54:00,
2013-03-31 14:03:00,34.0,-99.9,-100.00,North,0,0.0,0.0,-999,0.00,,,-99.99,,2013-03-31 20:03:00,
2013-03-31 14:13:00,34.0,-99.9,-100.00,North,0,0.0,0.0,-999,0.00,,,-99.99,,2013-03-31 20:13:00,
2013-03-31 14:23:00,34.0,-99.9,-100.00,North,0,0.0,0.0,-999,0.00,,,-99.99,,2013-03-31 20:23:00,
2013-03-31 14:34:00,36.0,-99.9,-100.00,ENE,69,0.0,3.0,-999,0.00,,,-99.99,,2013-03-31 20:34:00,
2013-03-31 14:44:00,36.0,-99.9,-100.00,ENE,69,0.0,3.0,-999,0.00,,,-99.99,,2013-03-31 20:44:00,
2013-03-31 14:53:00,35.0,-99.9,-100.00,East,83,1.0,4.0,-999,0.00,,,-99.99,,2013-03-31 20:53:00,
2013-03-31 15:03:00,35.0,-99.9,-100.00,North,0,0.0,0.0,-999,0.00,,,-99.99,,2013-03-31 21:03:00,
2013-03-31 15:13:00,35.0,-99.9,-100.00,North,0,0.0,0.0,-999,0.00,,,-99.99,,2013-03-31 21:13:00,
2013-03-31 15:23:00,33.0,-99.9,-100.00,North,0,0.0,0.0,-999,0.00,,,-99.99,,2013-03-31 21:23:00,
2013-03-31 15:34:00,33.0,-99.9,-100.00,North,0,0.0,0.0,-999,0.00,,,-99.99,,2013-03-31 21:34:00,
2013-03-31 15:44:00,33.0,-99.9,-100.00,North,0,0.0,0.0,-999,0.00,,,-99.99,,2013-03-31 21:44:00,
2013-03-31 15:54:00,34.0,-99.9,-100.00,North,0,0.0,0.0,-999,0.00,,,-99.99,,2013-03-31 21:54:00,
2013-03-31 16:04:00,34.0,-99.9,-100.00,East,83,2.0,5.0,-999,0.00,,,-99.99,,2013-03-31 22:04:00,
2013-03-31 16:13:00,34.0,-99.9,-100.00,East,83,2.0,5.0,-999,0.00,,,-99.99,,2013-03-31 22:13:00,
2013-03-31 16:24:00,35.0,-99.9,-100.00,SE,127,0.0,4.0,-999,0.00,,,-99.99,,2013-03-31 22:24:00,
2013-03-31 16:34:00,34.0,-99.9,-100.00,North,0,0.0,0.0,-999,0.00,,,-99.99,,2013-03-31 22:34:00,
2013-03-31 16:43:00,34.0,-99.9,-100.00,North,0,0.0,0.0,-999,0.00,,,-99.99,,2013-03-31 22:43:00,
2013-03-31 16:54:00,37.0,-99.9,-100.00,North,0,0.0,0.0,-999,0.00,,,-99.99,,2013-03-31 22:54:00,
2013-03-31 17:03:00,36.0,-99.9,-100.00,North,0,0.0,0.0,-999,0.00,,,-99.99,,2013-03-31 23:03:00,
2013-03-31 17:13:00,36.0,-99.9,-100.00,North,0,0.0,0.0,-999,0.00,,,-99.99,,2013-03-31 23:13:00,
2013-03-31 17:23:00,37.0,-99.9,-100.00,East,93,3.0,6.0,-999,0.00,,,-99.99,,2013-03-31 23:23:00,
2013-03-31 17:33:00,37.0,-99.9,-100.00,North,0,0.0,0.0,-999,0.00,,,-99.99,,2013-03-31 23:33:00,
2013-03-31 17:43:00,37.0,-99.9,-100.00,North,0,0.0,0.0,-999,0.00,,,-99.99,,2013-03-31 23:43:00,
2013-03-31 17:54:00,33.0,-99.9,-100.00,North,0,0.0,0.0,-999,0.00,,,-99.99,,2013-03-31 23:54:00,
2013-03-31 18:03:00,32.0,-99.9,-100.00,ENE,58,5.0,7.0,-999,0.00,,,-99.99,,2013-04-01 00:03:00,
2013-03-31 18:13:00,32.0,-99.9,-100.00,ENE,58,5.0,7.0,-999,0.00,,,-99.99,,2013-04-01 00:13:00,
2013-03-31 18:23:00,31.0,-99.9,-100.00,ENE,68,2.0,5.0,-999,0.00,,,-99.99,,2013-04-01 00:23:00,
2013-03-31 18:33:00,33.0,-99.9,-100.00,ENE,68,4.0,6.0,-999,0.00,,,-99.99,,2013-04-01 00:33:00,
2013-03-31 18:43:00,33.0,-99.9,-100.00,ENE,68,4.0,6.0,-999,0.00,,,-99.99,,2013-04-01 00:43:00,
2013-03-31 18:53:00,32.0,-99.9,-100.00,East,84,4.0,5.0,-999,0.00,,,-99.99,,2013-04-01 00:53:00,
2013-03-31 19:03:00,32.0,-99.9,-100.00,North,0,0.0,0.0,-999,0.00,,,-99.99,,2013-04-01 01:03:00,
2013-03-31 19:13:00,32.0,-99.9,-100.00,North,0,0.0,0.0,-999,0.00,,,-99.99,,2013-04-01 01:13:00,
2013-03-31 19:23:00,30.0,-99.9,-100.00,East,87,1.0,6.0,-999,0.00,,,-99.99,,2013-04-01 01:23:00,
2013-03-31 19:33:00,29.0,-99.9,-100.00,North,0,0.0,0.0,-999,0.00,,,-99.99,,2013-04-01 01:33:00,
2013-03-31 19:43:00,29.0,-99.9,-100.00,North,0,0.0,0.0,-999,0.00,,,-99.99,,2013-04-01 01:43:00,
2013-03-31 19:53:00,27.0,-99.9,-100.00,North,0,0.0,0.0,-999,0.00,,,-99.99,,2013-04-01 01:53:00,
2013-03-31 20:03:00,26.0,-99.9,-100.00,North,0,0.0,0.0,-999,0.00,,,-99.99,,2013-04-01 02:03:00,
2013-03-31 20:13:00,26.0,-99.9,-100.00,North,0,0.0,0.0,-999,0.00,,,-99.99,,2013-04-01 02:13:00,
2013-03-31 20:23:00,25.0,-99.9,-100.00,North,0,0.0,0.0,-999,0.00,,,-99.99,,2013-04-01 02:23:00,
2013-03-31 20:33:00,25.0,-99.9,-100.00,North,0,0.0,0.0,-999,0.00,,,-99.99,,2013-04-01 02:33:00,
2013-03-31 20:43:00,25.0,-99.9,-100.00,North,0,0.0,0.0,-999,0.00,,,-99.99,,2013-04-01 02:43:00,
2013-03-31 20:53:00,23.0,-99.9,-100.00,North,0,0.0,0.0,-999,0.00,,,-99.99,,2013-04-01 02:53:00,
2013-03-31 21:03:00,24.0,-99.9,-100.00,North,0,0.0,0.0,-999,0.00,,,-99.99,,2013-04-01 03:03:00,
2013-03-31 21:13:00,24.0,-99.9,-100.00,North,0,0.0,0.0,-999,0.00,,,-99.99,,2013-04-01 03:13:00,
2013-03-31 21:23:00,23.0,-99.9,-100.00,North,0,0.0,0.0,-999,0.00,,,-99.99,,2013-04-01 03:23:00,
2013-03-31 21:35:00,23.0,-99.9,-100.00,North,0,0.0,0.0,-999,0.00,,,-99.99,,2013-04-01 03:35:00,
2013-03-31 21:44:00,23.0,-99.9,-100.00,North,0,0.0,0.0,-999,0.00,,,-99.99,,2013-04-01 03:44:00,
2013-03-31 21:53:00,22.0,-99.9,-100.00,East,93,0.0,5.0,-999,0.00,,,-99.99,,2013-04-01 03:53:00,
2013-03-31 22:03:00,21.0,-99.9,-100.00,East,100,1.0,3.0,-999,0.00,,,-99.99,,2013-04-01 04:03:00,
2013-03-31 22:14:00,21.0,-99.9,-100.00,East,100,1.0,3.0,-999,0.00,,,-99.99,,2013-04-01 04:14:00,
2013-03-31 22:24:00,21.0,-99.9,-100.00,North,0,0.0,0.0,-999,0.00,,,-99.99,,2013-04-01 04:24:00,
2013-03-31 22:33:00,21.0,-99.9,-100.00,North,0,0.0,0.0,-999,0.00,,,-99.99,,2013-04-01 04:33:00,
2013-03-31 22:44:00,21.0,-99.9,-100.00,North,0,0.0,0.0,-999,0.00,,,-99.99,,2013-04-01 04:44:00,
2013-03-31 22:53:00,21.0,-99.9,-100.00,North,0,0.0,0.0,-999,0.00,,,-99.99,,2013-04-01 04:53:00,
2013-03-31 23:03:00,20.0,-99.9,-100.00,North,0,0.0,0.0,-999,0.00,,,-99.99,,2013-04-01 05:03:00,
2013-03-31 23:13:00,20.0,-99.9,-100.00,North,0,0.0,0.0,-999,0.00,,,-99.99,,2013-04-01 05:13:00,
2013-03-31 23:23:00,20.0,-99.9,-100.00,North,0,0.0,0.0,-999,0.00,,,-99.99,,2013-04-01 05:23:00,
2013-03-31 23:33:00,20.0,-99.9,-100.00,North,0,0.0,0.0,-999,0.00,,,-99.99,,2013-04-01 05:33:00,
2013-03-31 23:43:00,20.0,-99.9,-100.00,North,0,0.0,0.0,-999,0.00,,,-99.99,,2013-04-01 05:43:00,
2013-03-31 23:53:00,19.0,-99.9,-100.00,North,0,0.0,0.0,-999,0.00,,,-99.99,,2013-04-01 05:53:00,